Nashville, TN

2:20 AM CDT on August 24, 2017 (GMT -0500)
Nashville International

Weather History for KBNA - December, 2013

Change the Weather History Date:

Friday, December 6, 2013

  Actual Average Record
Temperature  
Mean Temperature 34 °F 43 °F  
Max Temperature 37 °F 52 °F 76 °F (1998)
Min Temperature 31 °F 33 °F 11 °F (1937)
Degree Days  
Heating Degree Days 31    
Month to date heating degree days 86  
Since 1 July heating degree days 820  
Cooling Degree Days 0    
Month to date cooling degree days 2  
Year to date cooling degree days 1733  
Moisture  
Dew Point 32 °F    
Average Humidity 91    
Maximum Humidity 96    
Minimum Humidity 85    
Precipitation  
Precipitation 1.47 in 0.15 in 1.47 in (2013)
Month to date precipitation 4.38 0.92  
Year to date precipitation 51.28 43.93  
Snow  
Snow 0.00 in - 0.50 in (1984)
Month to date snowfall 0.0  
Since 1 July snowfall 0.5  
Snow Depth 0.00 in    
Sea Level Pressure  
Sea Level Pressure 30.18 in    
Wind  
Wind Speed 11 mph (North)    
Max Wind Speed 18 mph    
Max Gust Speed 24 mph    
Visibility 6 miles    
Events Rain    
T = Trace of Precipitation, MM = Missing Value Source: NWS Daily Summary

Daily Weather History Graph

Daily Weather History Graph

Search for Another Location

Airport or City:

Trip Planner

Search our weather history database for the weather conditions in past years. The results will help you decide how hot, cold, wet, or windy it might be!

Date:

Astronomy

Dec. 06, 2013 Rise Set
Actual Time 6:43 AM CST 4:32 PM CST
Civil Twilight 6:15 AM CST 5:00 PM CST
Nautical Twilight 5:43 AM CST 5:32 PM CST
Astronomical Twilight 5:12 AM CST 6:03 PM CST
Moon 9:53 AM CST (12/6) 8:58 PM CST (12/6)
Length of Visible Light 10h 45m
Length of Day
9h 48m
Waxing Crescent, 19% of the Moon is Illuminated
Dec 6
Waxing Crescent
Dec 9
First Quarter
Dec 17
Full
Dec 25
Last Quarter
Jan 1
New

Hourly Weather History & Observations

Time (CST) Temp. Windchill Dew Point Humidity Pressure Visibility Wind Dir Wind Speed Gust Speed Precip Events Conditions
12:53 AM 35.1 °F 27.4 °F 33.1 °F 92% 30.10 in 8.0 mi North 10.4 mph - 0.08 in Rain Light Rain
1:53 AM 35.1 °F 26.4 °F 33.1 °F 92% 30.09 in 4.0 mi North 12.7 mph - 0.03 in Rain Light Rain
2:44 AM 35.6 °F 26.6 °F 33.8 °F 93% 30.09 in 2.5 mi North 13.8 mph 20.7 mph 0.09 in Rain Light Rain
2:53 AM 35.1 °F 27.9 °F 33.1 °F 92% 30.12 in 4.0 mi North 9.2 mph - 0.14 in Rain Heavy Rain
3:53 AM 36.0 °F 27.5 °F 34.0 °F 93% 30.09 in 4.0 mi NNE 12.7 mph - 0.16 in Rain Light Rain
4:53 AM 36.0 °F 30.3 °F 34.0 °F 93% 30.12 in 7.0 mi North 6.9 mph - 0.05 in Rain Rain
5:53 AM 37.0 °F 31.0 °F 34.0 °F 89% 30.09 in 10.0 mi NNE 8.1 mph - 0.06 in Rain Light Rain
6:53 AM 36.0 °F 29.0 °F 34.0 °F 93% 30.12 in 4.0 mi North 9.2 mph - 0.07 in Rain Rain
7:53 AM 36.0 °F 28.5 °F 34.0 °F 93% 30.12 in 7.0 mi North 10.4 mph - 0.02 in Rain Light Rain
8:53 AM 37.0 °F 28.1 °F 34.0 °F 89% 30.12 in 10.0 mi North 15.0 mph 18.4 mph 0.09 in   Overcast
9:53 AM 36.0 °F 29.0 °F 33.1 °F 89% 30.14 in 4.0 mi North 9.2 mph - 0.05 in Rain Light Rain
10:28 AM 35.6 °F 26.6 °F 33.8 °F 93% 30.13 in 2.5 mi North 13.8 mph - 0.04 in Rain Light Rain
10:53 AM 35.1 °F 26.4 °F 33.1 °F 92% 30.14 in 2.0 mi North 12.7 mph - 0.12 in Rain Rain
11:34 AM 35.6 °F 26.2 °F 33.8 °F 93% 30.11 in 6.0 mi NNE 15.0 mph - 0.02 in   Overcast
11:44 AM 35.6 °F 27.5 °F 33.8 °F 93% 30.10 in 2.5 mi North 11.5 mph - 0.03 in Rain Light Rain
11:53 AM 35.1 °F 25.5 °F 32.0 °F 89% 30.10 in 2.5 mi NNE 15.0 mph - 0.03 in Rain Light Rain
12:53 PM 35.1 °F 28.6 °F 33.1 °F 92% 30.14 in 2.0 mi North 8.1 mph - 0.17 in Rain Rain
1:23 PM 35.6 °F 27.5 °F 32.0 °F 87% 30.10 in 6.0 mi North 11.5 mph - 0.09 in Rain Light Rain
1:42 PM 33.8 °F 26.4 °F 32.0 °F 93% 30.13 in 2.0 mi North 9.2 mph 17.3 mph 0.11 in Rain Rain
1:53 PM 34.0 °F 26.0 °F 32.0 °F 92% 30.15 in 2.0 mi North 10.4 mph - 0.16 in Rain Rain
2:01 PM 33.8 °F 25.8 °F 30.2 °F 87% 30.17 in 2.0 mi North 10.4 mph - 0.03 in Rain Rain
2:08 PM 33.8 °F 25.3 °F 30.2 °F 87% 30.13 in 2.0 mi North 11.5 mph - 0.04 in Rain Rain
2:22 PM 33.8 °F 27.7 °F 32.0 °F 93% 30.13 in 2.0 mi NNE 6.9 mph - 0.11 in Rain Rain
2:53 PM 34.0 °F 26.6 °F 32.0 °F 92% 30.14 in 4.0 mi North 9.2 mph - 0.14 in Rain Light Rain
3:53 PM 34.0 °F 25.0 °F 30.9 °F 89% 30.19 in 6.0 mi North 12.7 mph - 0.08 in Rain Light Rain
4:53 PM 34.0 °F 27.2 °F 30.9 °F 89% 30.28 in 7.0 mi NW 8.1 mph - 0.01 in   Light Drizzle
5:06 PM 33.8 °F 26.4 °F 30.2 °F 87% 30.26 in 7.0 mi NNW 9.2 mph - 0.00 in   Light Drizzle
5:53 PM 34.0 °F 27.2 °F 30.9 °F 89% 30.24 in 10.0 mi NNE 8.1 mph - 0.01 in   Overcast
6:00 PM 33.8 °F 27.0 °F 30.2 °F 87% 30.22 in 10.0 mi NNE 8.1 mph - N/A   Overcast
6:50 PM 33.8 °F 25.8 °F 30.2 °F 87% 30.21 in 10.0 mi NNE 10.4 mph - N/A   Overcast
6:53 PM 34.0 °F 25.5 °F 30.9 °F 89% 30.22 in 10.0 mi NNE 11.5 mph - N/A   Overcast
7:53 PM 34.0 °F 25.0 °F 30.9 °F 89% 30.27 in 8.0 mi NNW 12.7 mph 20.7 mph 0.00 in Rain Light Rain
7:59 PM 33.8 °F 25.3 °F 30.2 °F 87% 30.28 in 10.0 mi NNW 11.5 mph - 0.00 in Rain Light Rain
8:53 PM 32.0 °F 22.5 °F 28.9 °F 88% 30.32 in 7.0 mi North 12.7 mph - 0.00 in   Overcast
9:53 PM 30.9 °F 20.7 °F 28.0 °F 89% 30.35 in 7.0 mi North 13.8 mph - N/A   Overcast
10:32 PM 30.2 °F 21.3 °F 26.6 °F 86% 30.34 in 10.0 mi North 10.4 mph - N/A   Overcast
10:53 PM 30.9 °F 21.2 °F 27.0 °F 85% 30.37 in 10.0 mi North 12.7 mph - N/A   Overcast
11:53 PM 30.9 °F 20.2 °F 27.0 °F 85% 30.38 in 10.0 mi North 15.0 mph - N/A   Overcast